Regional Weather Roundup
Issued by NWS

Home | Current Version | Previous Version | Graphics & Text | Print | Product List | Glossary On
Versions: 1 2 3 4 5 6 7 8 9 10 11 12 13 14 15 16 17 18 19 20 21 22 23 24 25 26 27 28 29 30 31 32 33 34 35 36 37 38 39 40 41 42 43 44 45 46 47 48 49 50
000
ASUS44 KMEG 290610
RWRTN
TENNESSEE HOURLY STATE WEATHER ROUNDUP
NATIONAL WEATHER SERVICE MEMPHIS TN
100 AM CDT WED MAR 29 2017

TNZ002-004-019-021-049-052-054-088>092-290700-
WEST TENNESSEE

CITY           SKY/WX    TMP DP  RH WIND       PRES   REMARKS
MEMPHIS INTL   CLEAR     64  54  69 NE14      29.96S
NWS MEMPHIS      N/A     62 N/A N/A MISG        N/A
JACKSON        CLEAR     58  54  86 E6        30.00F
DYERSBURG      CLEAR     57  54  89 E8        30.02
SOMERVILLE     PTCLDY    61  54  77 VRB5      29.97S
BOLIVAR        MOCLDY    61  54  77 NE6       29.98S
PARIS          CLEAR     52  52 100 NE8       30.03F
HUNTINGDON     CLEAR     55  54  94 NE7       30.02F FOG
SAVANNAH       CLOUDY    61  54  77 CALM      29.99S
$$

TNZ008-025-027-028-033-062-065-066-290700-
NORTH MIDDLE TENNESSEE

CITY           SKY/WX    TMP DP  RH WIND       PRES   REMARKS
NASHVILLE      CLEAR     55  52  89 N5        30.05F
PORTLAND       CLEAR     54  54 100 CALM      30.06S FOG
CLARKSVILLE    FOG       50  48  93 CALM      30.05S VSB 1/4
SMYRNA         CLEAR     54  52  93 CALM      30.06S
COOKEVILLE     CLEAR     48  46  93 CALM      30.03S
GALLATIN       CLEAR     55  54  94 N5        30.08R
CROSSVILLE     CLEAR     51  48  89 CALM      30.07F
$$

TNZ061-075-076-078-094-096-097-290700-
SOUTH MIDDLE TENNESSEE

CITY           SKY/WX    TMP DP  RH WIND       PRES   REMARKS
FAYETTEVILLE   PTCLDY    57  54  88 NE8       30.02S
TULLAHOMA      CLEAR     52  48  87 CALM        N/A
WINCHESTER     CLEAR     50  48  93 E3        30.03F
MCMINNVILLE    CLEAR     52  52 100 CALM      30.04F
COLUMBIA       CLEAR     55  55 100 CALM      30.02S
SHELBYVILLE    CLEAR     55  54  94 CALM      30.05R
$$

TNZ017-018-042-046-047-290700-
NORTHEAST TENNESSEE

CITY           SKY/WX    TMP DP  RH WIND       PRES   REMARKS
TRI CITIES     CLEAR     55  49  80 CALM      30.06S
ELIZABETHTON   CLEAR     50  48  93 CALM      30.06R
$$

TNZ012-013-036-069-073-074-290700-
CENTRAL EAST TENNESSEE

CITY           SKY/WX    TMP DP  RH WIND       PRES   REMARKS
KNOXVILLE      PTCLDY    57  49  74 N5        30.03F
OAK RIDGE      CLEAR     54  49  83 CALM      30.06S
DOWNTOWN KNOXV PTCLDY    54  52  94 CALM      30.05S
GATLINBURG     CLEAR     52  48  87 CALM      30.04F
MORRISTOWN     CLOUDY    54  52  94 CALM      30.04F
JACKSBORO      CLEAR     50  50 100 CALM      30.08F
$$

TNZ083-085-099-290700-
SOUTHEAST TENNESSEE

CITY           SKY/WX    TMP DP  RH WIND       PRES   REMARKS
CHATTANOOGA    CLEAR     56  51  84 CALM      30.04F
$$

SKY/WX REPORTED AS FAIR MEANS FEW OR NO CLOUDS BELOW
12 THOUSAND FEET.





USA.gov is the U.S. government's official web portal to all federal, state and local government web resources and services.